When you browse on this site, cookies collect data to enhance your experience and personalize the content and advertising you see.
Visit our Privacy Policy to learn more. By continuing to use the site, you agree to this use of cookies and data.
  • In Belgium
  • List of Countries
  • For 7 days
  • Water Temperature
  • Weather Map
  • Weather Widgets
  • user-avatar
    Login

    Hourly Weather Canberra

    Today, 14 December, Saturday

    Time Temperature Precipitation Wind Pressure Humidity
    00:00 +12°C° 0 mm 1 mps 707 mmHg 91%
    01:00 +12°C° 0 mm 1 mps 707 mmHg 93%
    02:00 +11°C° 0 mm 1 mps 706 mmHg 93%
    03:00 +10°C° 0 mm 0 mps 706 mmHg 94%
    04:00 +11°C° 0 mm 1 mps 705 mmHg 94%
    05:00 +13°C° 0 mm 1 mps 706 mmHg 85%
    06:00 +14°C° 0 mm 0 mps 706 mmHg 76%
    07:00 +16°C° 0 mm 0 mps 707 mmHg 67%
    08:00 +21°C° 0 mm 1 mps 707 mmHg 56%
    09:00 +24°C° 0 mm 2 mps 707 mmHg 44%
    10:00 +26°C° 0 mm 3 mps 707 mmHg 36%
    11:00 +27°C° 0 mm 4 mps 707 mmHg 32%
    12:00 +28°C° 0 mm 5 mps 706 mmHg 27%
    13:00 +30°C° 0 mm 6 mps 706 mmHg 23%
    14:00 +29°C° 0 mm 5 mps 706 mmHg 26%
    15:00 +28°C° 0 mm 5 mps 706 mmHg 28%
    16:00 +28°C° 0 mm 4 mps 705 mmHg 31%
    17:00 +25°C° 0 mm 4 mps 706 mmHg 45%
    18:00 +21°C° 0 mm 3 mps 706 mmHg 60%
    19:00 +18°C° 0 mm 3 mps 706 mmHg 74%
    20:00 +17°C° 0 mm 2 mps 706 mmHg 80%
    21:00 +16°C° 0 mm 2 mps 707 mmHg 87%
    22:00 +15°C° 0 mm 2 mps 707 mmHg 93%
    23:00 +15°C° 0 mm 1 mps 707 mmHg 92%

    Tomorrow, 15 December, Sunday

    Time Temperature Precipitation Wind Pressure Humidity
    00:00 +15°C° 0 mm 1 mps 706 mmHg 92%
    01:00 +16°C° 0 mm 1 mps 706 mmHg 91%
    02:00 +15°C° 0 mm 1 mps 706 mmHg 92%
    03:00 +14°C° 0 mm 1 mps 705 mmHg 94%
    04:00 +13°C° 0 mm 0 mps 705 mmHg 96%
    05:00 +15°C° 0 mm 1 mps 705 mmHg 90%
    06:00 +16°C° 0 mm 1 mps 705 mmHg 84%
    07:00 +18°C° 0 mm 1 mps 706 mmHg 79%
    08:00 +20°C° 0 mm 2 mps 706 mmHg 61%
    09:00 +24°C° 0 mm 3 mps 706 mmHg 44%
    10:00 +27°C° 0 mm 4 mps 706 mmHg 27%
    11:00 +28°C° 0 mm 5 mps 706 mmHg 24%
    12:00 +29°C° 0 mm 6 mps 705 mmHg 22%
    13:00 +30°C° 0 mm 7 mps 705 mmHg 20%
    14:00 +29°C° 0 mm 7 mps 704 mmHg 21%
    15:00 +29°C° 0 mm 7 mps 704 mmHg 21%
    16:00 +29°C° 0 mm 6 mps 704 mmHg 22%
    17:00 +28°C° 0 mm 5 mps 704 mmHg 24%
    18:00 +26°C° 0 mm 4 mps 704 mmHg 27%
    19:00 +25°C° 0 mm 3 mps 704 mmHg 30%
    20:00 +23°C° 0 mm 2 mps 704 mmHg 34%
    21:00 +20°C° 0 mm 2 mps 704 mmHg 38%
    22:00 +19°C° 0 mm 1 mps 704 mmHg 43%
    23:00 +18°C° 0 mm 1 mps 704 mmHg 43%

    Day after tomorrow, 16 December, Monday

    Time Temperature Precipitation Wind Pressure Humidity
    00:00 +16°C° 0 mm 1 mps 704 mmHg 44%
    01:00 +15°C° 0 mm 1 mps 704 mmHg 45%
    02:00 +14°C° 0 mm 1 mps 704 mmHg 46%
    03:00 +14°C° 0 mm 1 mps 704 mmHg 48%
    04:00 +13°C° 0 mm 1 mps 704 mmHg 50%
    05:00 +15°C° 0 mm 1 mps 705 mmHg 47%
    06:00 +18°C° 0 mm 1 mps 706 mmHg 45%
    07:00 +21°C° 0 mm 1 mps 707 mmHg 43%
    08:00 +23°C° 0 mm 1 mps 707 mmHg 37%
    09:00 +26°C° 0 mm 1 mps 708 mmHg 30%
    10:00 +29°C° 0 mm 1 mps 708 mmHg 24%
    11:00 +31°C° 0 mm 1 mps 708 mmHg 22%
    12:00 +32°C° 0 mm 2 mps 708 mmHg 21%
    13:00 +34°C° 0 mm 2 mps 708 mmHg 20%
    14:00 +33°C° 0 mm 3 mps 708 mmHg 25%
    15:00 +30°C° 0 mm 5 mps 708 mmHg 31%
    16:00 +28°C° 0 mm 6 mps 708 mmHg 36%
    17:00 +25°C° 0 mm 5 mps 708 mmHg 47%
    18:00 +21°C° 0 mm 5 mps 708 mmHg 57%
    19:00 +18°C° 0 mm 4 mps 709 mmHg 68%
    20:00 +15°C° 0 mm 4 mps 709 mmHg 75%
    21:00 +14°C° 0 mm 3 mps 710 mmHg 81%
    22:00 +13°C° 0 mm 2 mps 710 mmHg 87%
    23:00 +13°C° 0 mm 2 mps 710 mmHg 89%

    17 December, Tuesday

    Time Temperature Precipitation Wind Pressure Humidity
    00:00 +12°C° 0 mm 2 mps 710 mmHg 91%
    01:00 +12°C° 0 mm 1 mps 710 mmHg 93%
    02:00 +12°C° 0 mm 1 mps 710 mmHg 92%
    03:00 +12°C° 0 mm 1 mps 710 mmHg 90%
    04:00 +12°C° 0 mm 1 mps 710 mmHg 89%
    05:00 +14°C° 0 mm 1 mps 711 mmHg 81%
    06:00 +16°C° 0 mm 1 mps 711 mmHg 72%
    07:00 +19°C° 0 mm 1 mps 712 mmHg 64%
    08:00 +21°C° 0 mm 2 mps 712 mmHg 53%
    09:00 +25°C° 0 mm 2 mps 712 mmHg 42%
    10:00 +29°C° 0 mm 2 mps 713 mmHg 31%
    11:00 +30°C° 0 mm 2 mps 713 mmHg 27%
    12:00 +32°C° 0 mm 2 mps 712 mmHg 24%
    13:00 +35°C° 0 mm 2 mps 712 mmHg 20%
    14:00 +34°C° 0 mm 3 mps 712 mmHg 21%
    15:00 +34°C° 0 mm 4 mps 711 mmHg 23%
    16:00 +34°C° 0 mm 5 mps 711 mmHg 24%
    17:00 +30°C° 0 mm 4 mps 711 mmHg 32%
    18:00 +27°C° 0 mm 4 mps 711 mmHg 41%
    19:00 +23°C° 0 mm 4 mps 711 mmHg 49%
    20:00 +20°C° 0 mm 3 mps 711 mmHg 59%
    21:00 +18°C° 0 mm 2 mps 711 mmHg 68%
    22:00 +16°C° 0 mm 2 mps 711 mmHg 78%
    23:00 +15°C° 0 mm 1 mps 711 mmHg 81%

    18 December, Wednesday

    Time Temperature Precipitation Wind Pressure Humidity
    00:00 +14°C° 0 mm 1 mps 711 mmHg 84%
    01:00 +13°C° 0 mm 0 mps 711 mmHg 87%
    02:00 +12°C° 0 mm 0 mps 711 mmHg 86%
    03:00 +13°C° 0 mm 1 mps 710 mmHg 86%
    04:00 +13°C° 0 mm 1 mps 710 mmHg 85%
    05:00 +16°C° 0 mm 1 mps 711 mmHg 72%
    06:00 +20°C° 0 mm 1 mps 711 mmHg 59%
    07:00 +21°C° 0 mm 0 mps 711 mmHg 46%
    08:00 +27°C° 0 mm 1 mps 711 mmHg 38%
    09:00 +30°C° 0 mm 2 mps 711 mmHg 29%
    10:00 +35°C° 0 mm 3 mps 711 mmHg 21%
    11:00 +36°C° 0 mm 4 mps 711 mmHg 19%
    12:00 +39°C° 0 mm 5 mps 710 mmHg 16%
    13:00 +40°C° 0 mm 5 mps 710 mmHg 14%
    14:00 +40°C° 0 mm 5 mps 709 mmHg 13%
    15:00 +40°C° 0 mm 5 mps 709 mmHg 13%
    16:00 +40°C° 0 mm 5 mps 709 mmHg 13%
    17:00 +37°C° 0 mm 4 mps 709 mmHg 16%
    18:00 +35°C° 0 mm 3 mps 709 mmHg 18%
    19:00 +31°C° 0 mm 1 mps 709 mmHg 21%
    20:00 +29°C° 0 mm 1 mps 708 mmHg 24%
    21:00 +27°C° 0 mm 1 mps 708 mmHg 27%
    22:00 +23°C° 0 mm 0 mps 708 mmHg 31%
    23:00 +22°C° 0 mm 0 mps 707 mmHg 32%

    19 December, Thursday

    Time Temperature Precipitation Wind Pressure Humidity
    00:00 +21°C° 0 mm 0 mps 707 mmHg 33%
    01:00 +22°C° 0 mm 1 mps 706 mmHg 35%
    02:00 +22°C° 0 mm 1 mps 706 mmHg 36%
    03:00 +22°C° 0 mm 1 mps 706 mmHg 37%
    04:00 +21°C° 0 mm 2 mps 705 mmHg 38%
    05:00 +24°C° 0 mm 3 mps 706 mmHg 35%
    06:00 +26°C° 0 mm 4 mps 707 mmHg 32%
    07:00 +29°C° 0 mm 6 mps 707 mmHg 29%
    08:00 +32°C° 0 mm 6 mps 708 mmHg 25%
    09:00 +35°C° 0 mm 6 mps 708 mmHg 21%
    10:00 +38°C° 0 mm 6 mps 709 mmHg 17%
    11:00 +40°C° 0 mm 7 mps 709 mmHg 15%
    12:00 +41°C° 0 mm 7 mps 709 mmHg 12%
    13:00 +43°C° 0 mm 7 mps 709 mmHg 10%
    14:00 +41°C° 0 mm 6 mps 709 mmHg 12%
    15:00 +39°C° 0 mm 5 mps 709 mmHg 14%
    16:00 +37°C° 0 mm 4 mps 709 mmHg 16%
    17:00 +30°C° 0 mm 4 mps 709 mmHg 26%
    18:00 +25°C° 0 mm 4 mps 710 mmHg 37%
    19:00 +19°C° 0 mm 4 mps 710 mmHg 47%
    20:00 +17°C° 0 mm 4 mps 711 mmHg 56%
    21:00 +14°C° 0 mm 3 mps 711 mmHg 65%
    22:00 +11°C° 0 mm 3 mps 712 mmHg 74%
    23:00 +12°C° 0 mm 2 mps 711 mmHg 79%
    Show more